Time,TemperatureF,DewpointF,PressureIn,WindDirection,WindDirectionDegrees,WindSpeedMPH,WindSpeedGustMPH,Humidity,HourlyPrecipIn,Conditions,Clouds,dailyrainin,SoftwareType,DateUTC
2013-04-08 00:00:00,2.5,-0.7,30.07,West,275,0.0,1.0,86,0.00,,---,0.00,VWS V14.01,2013-04-08 08:00:00,
2013-04-08 00:02:00,2.4,-0.8,30.07,West,275,0.0,0.0,86,0.00,,---,0.00,VWS V14.01,2013-04-08 08:02:00,
2013-04-08 00:07:00,2.4,-0.8,30.07,West,275,0.0,0.0,86,0.00,,---,0.00,VWS V14.01,2013-04-08 08:07:00,
2013-04-08 00:12:00,2.5,-0.2,30.07,West,275,0.0,0.0,88,0.00,,---,0.00,VWS V14.01,2013-04-08 08:12:00,
2013-04-08 00:17:00,2.6,-0.4,30.07,West,275,0.0,0.0,87,0.00,,---,0.00,VWS V14.01,2013-04-08 08:17:00,
2013-04-08 00:22:00,2.6,-0.4,30.07,West,275,0.0,0.0,87,0.00,,---,0.00,VWS V14.01,2013-04-08 08:22:00,
2013-04-08 00:27:00,2.6,-0.6,30.07,West,275,0.0,0.0,86,0.00,,---,0.00,VWS V14.01,2013-04-08 08:27:00,
2013-04-08 00:30:00,2.6,-0.6,30.07,West,275,0.0,0.0,86,0.00,,---,0.00,VWS V14.01,2013-04-08 08:30:00,
2013-04-08 00:32:00,2.6,-0.6,30.07,West,275,0.0,0.0,86,0.00,,---,0.00,VWS V14.01,2013-04-08 08:32:00,
2013-04-08 00:37:00,2.5,-0.7,30.07,West,275,0.0,0.0,86,0.00,,---,0.00,VWS V14.01,2013-04-08 08:37:00,
2013-04-08 00:42:00,2.4,-1.1,30.07,West,275,0.0,0.0,85,0.00,,---,0.00,VWS V14.01,2013-04-08 08:42:00,
2013-04-08 00:47:00,2.4,-0.8,30.07,West,275,0.0,0.0,86,0.00,,---,0.00,VWS V14.01,2013-04-08 08:47:00,
2013-04-08 00:52:00,2.7,0.0,30.07,West,275,0.0,0.0,88,0.00,,---,0.00,VWS V14.01,2013-04-08 08:52:00,
2013-04-08 00:57:00,2.8,-0.4,30.07,West,275,0.0,0.0,86,0.00,,---,0.00,VWS V14.01,2013-04-08 08:57:00,
2013-04-08 01:00:00,2.7,-0.5,30.08,West,275,0.0,0.0,86,0.00,,---,0.00,VWS V14.01,2013-04-08 09:00:00,
2013-04-08 01:02:00,2.7,-0.5,30.08,West,275,0.0,0.0,86,0.00,,---,0.00,VWS V14.01,2013-04-08 09:02:00,
2013-04-08 01:07:00,2.4,-1.1,30.07,West,275,1.0,1.0,85,0.00,,---,0.00,VWS V14.01,2013-04-08 09:07:00,
2013-04-08 01:12:00,2.3,-0.9,30.07,West,275,0.0,1.0,86,0.00,,---,0.00,VWS V14.01,2013-04-08 09:12:00,
2013-04-08 01:17:00,2.4,-0.8,30.08,West,275,0.0,1.0,86,0.00,,---,0.00,VWS V14.01,2013-04-08 09:17:00,
2013-04-08 01:22:00,2.4,-0.8,30.07,West,275,0.0,1.0,86,0.00,,---,0.00,VWS V14.01,2013-04-08 09:22:00,
2013-04-08 01:27:00,2.4,-0.8,30.08,West,275,0.0,1.0,86,0.00,,---,0.00,VWS V14.01,2013-04-08 09:27:00,
2013-04-08 01:30:00,2.5,-0.7,30.07,West,275,0.0,1.0,86,0.00,,---,0.00,VWS V14.01,2013-04-08 09:30:00,
2013-04-08 01:32:00,2.5,-0.7,30.07,West,275,0.0,0.0,86,0.00,,---,0.00,VWS V14.01,2013-04-08 09:32:00,
2013-04-08 01:37:00,2.5,-0.7,30.08,West,275,0.0,0.0,86,0.00,,---,0.00,VWS V14.01,2013-04-08 09:37:00,
2013-04-08 01:42:00,2.4,-0.8,30.08,West,275,0.0,0.0,86,0.00,,---,0.00,VWS V14.01,2013-04-08 09:42:00,
2013-04-08 01:47:00,2.5,-0.7,30.07,West,275,0.0,0.0,86,0.00,,---,0.00,VWS V14.01,2013-04-08 09:47:00,
2013-04-08 01:52:00,2.5,-0.7,30.07,West,275,0.0,0.0,86,0.00,,---,0.00,VWS V14.01,2013-04-08 09:52:00,
2013-04-08 01:57:00,2.4,-0.8,30.07,West,275,0.0,0.0,86,0.00,,---,0.00,VWS V14.01,2013-04-08 09:57:00,
2013-04-08 02:00:00,2.5,-0.7,30.07,West,275,0.0,0.0,86,0.00,,---,0.00,VWS V14.01,2013-04-08 10:00:00,
2013-04-08 02:02:00,2.5,-0.7,30.07,West,275,0.0,0.0,86,0.00,,---,0.00,VWS V14.01,2013-04-08 10:02:00,
2013-04-08 02:07:00,2.4,-1.1,30.07,West,275,0.0,0.0,85,0.00,,---,0.00,VWS V14.01,2013-04-08 10:07:00,
2013-04-08 02:12:00,2.3,-0.9,30.08,West,275,0.0,0.0,86,0.00,,---,0.00,VWS V14.01,2013-04-08 10:12:00,
2013-04-08 02:17:00,2.3,-0.9,30.08,West,275,0.0,1.0,86,0.00,,---,0.00,VWS V14.01,2013-04-08 10:17:00,
2013-04-08 02:22:00,2.3,-0.9,30.08,West,275,0.0,1.0,86,0.00,,---,0.00,VWS V14.01,2013-04-08 10:22:00,
2013-04-08 02:27:00,2.1,-1.4,30.08,West,275,0.0,1.0,85,0.00,,---,0.00,VWS V14.01,2013-04-08 10:27:00,
2013-04-08 02:30:00,2.1,-1.1,30.08,West,275,0.0,1.0,86,0.00,,---,0.00,VWS V14.01,2013-04-08 10:30:00,
2013-04-08 02:32:00,2.0,-1.2,30.08,West,275,0.0,0.0,86,0.00,,---,0.00,VWS V14.01,2013-04-08 10:32:00,
2013-04-08 02:37:00,2.0,-1.5,30.08,West,275,0.0,1.0,85,0.00,,---,0.00,VWS V14.01,2013-04-08 10:37:00,
2013-04-08 02:42:00,1.9,-1.3,30.09,West,275,0.0,1.0,86,0.00,,---,0.00,VWS V14.01,2013-04-08 10:42:00,
2013-04-08 02:47:00,1.8,-1.4,30.09,West,274,0.0,2.0,86,0.00,,---,0.00,VWS V14.01,2013-04-08 10:47:00,
2013-04-08 02:52:00,1.7,-1.5,30.08,West,274,0.0,2.0,86,0.00,,---,0.00,VWS V14.01,2013-04-08 10:52:00,
2013-04-08 02:57:00,1.5,-1.7,30.09,West,274,1.0,2.0,86,0.00,,---,0.00,VWS V14.01,2013-04-08 10:57:00,
2013-04-08 03:00:00,1.5,-1.7,30.09,West,274,1.0,2.0,86,0.00,,---,0.00,VWS V14.01,2013-04-08 11:00:00,
2013-04-08 03:02:00,1.5,-1.7,30.09,West,274,2.0,2.0,86,0.00,,---,0.00,VWS V14.01,2013-04-08 11:02:00,
2013-04-08 03:07:00,1.4,-1.8,30.09,West,273,0.0,2.0,86,0.00,,---,0.00,VWS V14.01,2013-04-08 11:07:00,
2013-04-08 03:12:00,1.4,-1.6,30.09,West,273,1.0,2.0,87,0.00,,---,0.00,VWS V14.01,2013-04-08 11:12:00,
2013-04-08 03:17:00,1.6,-1.4,30.08,West,271,0.0,2.0,87,0.00,,---,0.00,VWS V14.01,2013-04-08 11:17:00,
2013-04-08 03:22:00,1.5,-1.7,30.08,West,271,1.0,2.0,86,0.00,,---,0.00,VWS V14.01,2013-04-08 11:22:00,
2013-04-08 03:27:00,1.3,-1.9,30.08,NW,304,0.0,2.0,86,0.00,,---,0.00,VWS V14.01,2013-04-08 11:27:00,
2013-04-08 03:30:00,1.3,-1.9,30.08,NW,308,1.0,2.0,86,0.00,,---,0.00,VWS V14.01,2013-04-08 11:30:00,
2013-04-08 03:32:00,1.3,-1.9,30.08,NW,308,1.0,1.0,86,0.00,,---,0.00,VWS V14.01,2013-04-08 11:32:00,
2013-04-08 03:37:00,1.3,-1.9,30.08,East,92,1.0,4.0,86,0.00,,---,0.00,VWS V14.01,2013-04-08 11:37:00,
2013-04-08 03:42:00,1.4,-1.6,30.08,East,97,1.0,4.0,87,0.00,,---,0.00,VWS V14.01,2013-04-08 11:42:00,
2013-04-08 03:47:00,1.4,-1.8,30.08,ESE,102,0.0,4.0,86,0.00,,---,0.00,VWS V14.01,2013-04-08 11:47:00,
2013-04-08 03:52:00,1.4,-1.8,30.08,SE,146,0.0,4.0,86,0.00,,---,0.00,VWS V14.01,2013-04-08 11:52:00,
2013-04-08 03:57:00,1.3,-1.9,30.08,SSE,147,0.0,4.0,86,0.00,,---,0.00,VWS V14.01,2013-04-08 11:57:00,
2013-04-08 04:00:00,1.1,-2.1,30.08,SSE,147,0.0,4.0,86,0.00,,---,0.00,VWS V14.01,2013-04-08 12:00:00,
2013-04-08 04:02:00,1.1,-2.1,30.07,East,82,0.0,1.0,86,0.00,,---,0.00,VWS V14.01,2013-04-08 12:02:00,
2013-04-08 04:07:00,0.8,-2.6,30.07,East,83,0.0,1.0,85,0.00,,---,0.00,VWS V14.01,2013-04-08 12:07:00,
2013-04-08 04:12:00,0.8,-2.4,30.07,East,83,0.0,1.0,86,0.00,,---,0.00,VWS V14.01,2013-04-08 12:12:00,
2013-04-08 04:17:00,0.7,-2.5,30.07,East,83,0.0,1.0,86,0.00,,---,0.00,VWS V14.01,2013-04-08 12:17:00,
2013-04-08 04:22:00,0.6,-2.6,30.07,East,83,0.0,1.0,86,0.00,,---,0.00,VWS V14.01,2013-04-08 12:22:00,
2013-04-08 04:27:00,0.6,-2.6,30.07,East,83,0.0,1.0,86,0.00,,---,0.00,VWS V14.01,2013-04-08 12:27:00,
2013-04-08 04:30:00,0.5,-2.7,30.07,East,83,0.0,1.0,86,0.00,,---,0.00,VWS V14.01,2013-04-08 12:30:00,
2013-04-08 04:32:00,0.6,-2.6,30.07,East,83,0.0,0.0,86,0.00,,---,0.00,VWS V14.01,2013-04-08 12:32:00,
2013-04-08 04:37:00,0.6,-2.6,30.07,East,83,0.0,0.0,86,0.00,,---,0.00,VWS V14.01,2013-04-08 12:37:00,
2013-04-08 04:42:00,0.6,-2.6,30.07,East,83,1.0,1.0,86,0.00,,---,0.00,VWS V14.01,2013-04-08 12:42:00,
2013-04-08 04:47:00,0.8,-2.4,30.06,East,83,0.0,1.0,86,0.00,,---,0.00,VWS V14.01,2013-04-08 12:47:00,
2013-04-08 04:52:00,0.9,-2.3,30.06,East,83,0.0,1.0,86,0.00,,---,0.00,VWS V14.01,2013-04-08 12:52:00,
2013-04-08 04:57:00,1.0,-2.0,30.06,East,83,0.0,1.0,87,0.00,,---,0.00,VWS V14.01,2013-04-08 12:57:00,
2013-04-08 05:00:00,1.0,-2.2,30.06,East,83,0.0,1.0,86,0.00,,---,0.00,VWS V14.01,2013-04-08 13:00:00,
2013-04-08 05:02:00,1.0,-2.2,30.06,East,83,0.0,0.0,86,0.00,,---,0.00,VWS V14.01,2013-04-08 13:02:00,
2013-04-08 05:07:00,1.1,-1.9,30.06,East,83,0.0,1.0,87,0.00,,---,0.00,VWS V14.01,2013-04-08 13:07:00,
2013-04-08 05:12:00,1.1,-2.1,30.06,East,83,0.0,1.0,86,0.00,,---,0.00,VWS V14.01,2013-04-08 13:12:00,
2013-04-08 05:18:00,1.3,-1.7,30.06,East,83,0.0,1.0,87,0.00,,---,0.00,VWS V14.01,2013-04-08 13:18:00,
2013-04-08 05:23:00,1.3,-1.9,30.06,East,83,0.0,1.0,86,0.00,,---,0.00,VWS V14.01,2013-04-08 13:23:00,
2013-04-08 05:28:00,1.2,-2.0,30.06,East,83,0.0,1.0,86,0.00,,---,0.00,VWS V14.01,2013-04-08 13:28:00,
2013-04-08 05:32:00,1.2,-2.0,30.06,East,83,0.0,0.0,86,0.00,,---,0.00,VWS V14.01,2013-04-08 13:32:00,
2013-04-08 05:37:00,1.2,-2.0,30.06,East,83,0.0,1.0,86,0.00,,---,0.00,VWS V14.01,2013-04-08 13:37:00,
2013-04-08 05:42:00,1.3,-1.7,30.05,East,83,0.0,1.0,87,0.00,,---,0.00,VWS V14.01,2013-04-08 13:42:00,
2013-04-08 05:47:00,1.5,-1.7,30.05,East,83,0.0,1.0,86,0.00,,---,0.00,VWS V14.01,2013-04-08 13:47:00,
2013-04-08 05:52:00,1.4,-1.8,30.05,East,83,0.0,1.0,86,0.00,,---,0.00,VWS V14.01,2013-04-08 13:52:00,
2013-04-08 05:57:00,1.3,-1.9,30.05,East,83,0.0,1.0,86,0.00,,---,0.00,VWS V14.01,2013-04-08 13:57:00,
2013-04-08 06:00:00,1.3,-1.9,30.05,East,83,0.0,1.0,86,0.00,,---,0.00,VWS V14.01,2013-04-08 14:00:00,
2013-04-08 06:02:00,1.4,-1.6,30.05,East,83,0.0,0.0,87,0.00,,---,0.00,VWS V14.01,2013-04-08 14:02:00,
2013-04-08 06:07:00,1.7,-1.3,30.05,East,83,0.0,0.0,87,0.00,,---,0.00,VWS V14.01,2013-04-08 14:07:00,
2013-04-08 06:12:00,1.7,-1.5,30.05,East,83,0.0,1.0,86,0.00,,---,0.00,VWS V14.01,2013-04-08 14:12:00,
2013-04-08 06:17:00,1.8,-1.4,30.05,ENE,69,0.0,3.0,86,0.00,,---,0.00,VWS V14.01,2013-04-08 14:17:00,
2013-04-08 06:22:00,1.9,-1.3,30.05,ENE,65,0.0,3.0,86,0.00,,---,0.00,VWS V14.01,2013-04-08 14:22:00,
2013-04-08 06:27:00,2.0,-1.2,30.04,ENE,65,1.0,3.0,86,0.00,,---,0.00,VWS V14.01,2013-04-08 14:27:00,
2013-04-08 06:30:00,2.1,-1.1,30.04,ENE,61,0.0,3.0,86,0.00,,---,0.00,VWS V14.01,2013-04-08 14:30:00,
2013-04-08 06:32:00,2.1,-1.1,30.04,ENE,61,0.0,1.0,86,0.00,,---,0.00,VWS V14.01,2013-04-08 14:32:00,
2013-04-08 06:37:00,2.3,-0.9,30.04,ENE,61,0.0,1.0,86,0.00,,---,0.00,VWS V14.01,2013-04-08 14:37:00,
2013-04-08 06:42:00,2.3,-0.9,30.04,ENE,61,1.0,1.0,86,0.00,,---,0.00,VWS V14.01,2013-04-08 14:42:00,
2013-04-08 06:47:00,2.4,-0.8,30.04,ENE,61,0.0,1.0,86,0.00,,---,0.00,VWS V14.01,2013-04-08 14:47:00,
2013-04-08 06:52:00,2.6,-0.6,30.03,ENE,61,0.0,1.0,86,0.00,,---,0.00,VWS V14.01,2013-04-08 14:52:00,
2013-04-08 06:57:00,2.7,-0.5,30.03,ENE,61,0.0,1.0,86,0.00,,---,0.00,VWS V14.01,2013-04-08 14:57:00,
2013-04-08 07:00:00,2.8,-0.4,30.03,ENE,61,0.0,1.0,86,0.00,,---,0.00,VWS V14.01,2013-04-08 15:00:00,
2013-04-08 07:02:00,2.8,-0.4,30.03,ENE,61,0.0,0.0,86,0.00,,---,0.00,VWS V14.01,2013-04-08 15:02:00,
2013-04-08 07:07:00,2.7,-0.8,30.03,ENE,61,0.0,1.0,85,0.00,,---,0.00,VWS V14.01,2013-04-08 15:07:00,
2013-04-08 07:12:00,2.6,-0.9,30.03,ENE,61,0.0,1.0,85,0.00,,---,0.00,VWS V14.01,2013-04-08 15:12:00,
2013-04-08 07:17:00,2.6,-0.9,30.03,ENE,61,0.0,1.0,85,0.00,,---,0.00,VWS V14.01,2013-04-08 15:17:00,
2013-04-08 07:22:00,2.5,-1.0,30.03,ENE,61,0.0,1.0,85,0.00,,---,0.00,VWS V14.01,2013-04-08 15:22:00,
2013-04-08 07:27:00,2.4,-1.1,30.03,ENE,61,0.0,2.0,85,0.00,,---,0.00,VWS V14.01,2013-04-08 15:27:00,
2013-04-08 07:30:00,2.4,-1.1,30.03,ENE,61,0.0,2.0,85,0.00,,---,0.00,VWS V14.01,2013-04-08 15:30:00,
2013-04-08 07:32:00,2.4,-1.1,30.03,ENE,61,0.0,0.0,85,0.00,,---,0.00,VWS V14.01,2013-04-08 15:32:00,
2013-04-08 07:37:00,2.4,-1.1,30.03,ENE,61,0.0,0.0,85,0.00,,---,0.00,VWS V14.01,2013-04-08 15:37:00,
2013-04-08 07:42:00,2.4,-0.8,30.03,ENE,61,0.0,0.0,86,0.00,,---,0.00,VWS V14.01,2013-04-08 15:42:00,
2013-04-08 07:47:00,2.5,-0.7,30.03,ENE,61,0.0,0.0,86,0.00,,---,0.00,VWS V14.01,2013-04-08 15:47:00,
2013-04-08 07:52:00,2.5,-0.7,30.03,ENE,61,0.0,0.0,86,0.00,,---,0.00,VWS V14.01,2013-04-08 15:52:00,
2013-04-08 07:57:00,2.6,-0.6,30.02,ENE,61,0.0,1.0,86,0.00,,---,0.00,VWS V14.01,2013-04-08 15:57:00,
2013-04-08 08:00:00,2.6,-0.6,30.02,ENE,61,1.0,1.0,86,0.00,,---,0.00,VWS V14.01,2013-04-08 16:00:00,
2013-04-08 08:02:00,2.6,-0.6,30.02,ENE,61,0.0,1.0,86,0.00,,---,0.00,VWS V14.01,2013-04-08 16:02:00,
2013-04-08 08:07:00,2.7,-0.5,30.02,ENE,61,1.0,2.0,86,0.00,,---,0.00,VWS V14.01,2013-04-08 16:07:00,
2013-04-08 08:12:00,2.8,-0.4,30.02,ENE,61,0.0,2.0,86,0.00,,---,0.00,VWS V14.01,2013-04-08 16:12:00,
2013-04-08 08:17:00,2.9,-0.3,30.02,ENE,61,0.0,2.0,86,0.00,,---,0.00,VWS V14.01,2013-04-08 16:17:00,
2013-04-08 08:22:00,3.0,-0.2,30.01,ENE,61,1.0,2.0,86,0.00,,---,0.00,VWS V14.01,2013-04-08 16:22:00,
2013-04-08 08:27:00,2.9,-0.6,30.01,NNE,32,2.0,4.0,85,0.00,,---,0.00,VWS V14.01,2013-04-08 16:27:00,
2013-04-08 08:30:00,2.9,-0.6,30.01,North,5,0.0,4.0,85,0.00,,---,0.00,VWS V14.01,2013-04-08 16:30:00,
2013-04-08 08:32:00,3.0,-0.5,30.01,NNE,18,3.0,3.0,85,0.00,,---,0.00,VWS V14.01,2013-04-08 16:32:00,
2013-04-08 08:37:00,3.0,-0.5,30.00,North,10,1.0,5.0,85,0.00,,---,0.00,VWS V14.01,2013-04-08 16:37:00,
2013-04-08 08:42:00,2.8,-0.7,30.00,North,10,2.0,5.0,85,0.00,,---,0.00,VWS V14.01,2013-04-08 16:42:00,
2013-04-08 08:47:00,2.7,-0.8,30.00,NNE,19,1.0,5.0,85,0.00,,---,0.00,VWS V14.01,2013-04-08 16:47:00,
2013-04-08 08:52:00,2.6,-0.9,30.00,North,9,2.0,5.0,85,0.00,,---,0.00,VWS V14.01,2013-04-08 16:52:00,
2013-04-08 08:57:00,2.7,-0.8,29.99,North,5,2.0,5.0,85,0.00,,---,0.00,VWS V14.01,2013-04-08 16:57:00,
2013-04-08 09:00:00,2.7,-0.8,29.99,North,5,4.0,5.0,85,0.00,,---,0.00,VWS V14.01,2013-04-08 17:00:00,
2013-04-08 09:02:00,2.7,-0.8,29.99,North,5,1.0,4.0,85,0.00,,---,0.00,VWS V14.01,2013-04-08 17:02:00,
2013-04-08 09:07:00,2.8,-0.7,29.99,North,355,0.0,4.0,85,0.00,,---,0.00,VWS V14.01,2013-04-08 17:07:00,
2013-04-08 09:12:00,2.8,-0.7,29.99,North,355,1.0,4.0,85,0.00,,---,0.00,VWS V14.01,2013-04-08 17:12:00,
2013-04-08 09:17:00,2.6,-0.9,29.98,North,355,1.0,4.0,85,0.00,,---,0.00,VWS V14.01,2013-04-08 17:17:00,
2013-04-08 09:22:00,2.5,-1.0,29.98,North,11,1.0,5.0,85,0.00,,---,0.00,VWS V14.01,2013-04-08 17:22:00,
2013-04-08 09:27:00,2.6,-0.9,29.98,North,5,1.0,5.0,85,0.00,,---,0.00,VWS V14.01,2013-04-08 17:27:00,
2013-04-08 09:30:00,2.8,-0.7,29.98,NW,314,3.0,5.0,85,0.00,,---,0.00,VWS V14.01,2013-04-08 17:30:00,
2013-04-08 09:32:00,2.9,-0.6,29.98,NE,50,1.0,7.0,85,0.00,,---,0.00,VWS V14.01,2013-04-08 17:32:00,
2013-04-08 09:37:00,3.1,-0.4,29.99,NE,55,1.0,8.0,85,0.00,,---,0.00,VWS V14.01,2013-04-08 17:37:00,
2013-04-08 09:42:00,3.3,-0.2,29.99,ENE,70,2.0,8.0,85,0.00,,---,0.00,VWS V14.01,2013-04-08 17:42:00,
2013-04-08 09:47:00,3.5,0.0,29.98,North,5,1.0,8.0,85,0.00,,---,0.00,VWS V14.01,2013-04-08 17:47:00,
2013-04-08 09:52:00,3.7,0.2,29.98,NE,36,1.0,8.0,85,0.00,,---,0.00,VWS V14.01,2013-04-08 17:52:00,
2013-04-08 09:57:00,3.7,0.2,29.98,North,10,2.0,8.0,85,0.00,,---,0.00,VWS V14.01,2013-04-08 17:57:00,
2013-04-08 10:00:00,3.8,0.3,29.98,NNE,19,2.0,8.0,85,0.00,,---,0.00,VWS V14.01,2013-04-08 18:00:00,
2013-04-08 10:02:00,3.8,0.3,29.98,NNE,30,2.0,3.0,85,0.00,,---,0.00,VWS V14.01,2013-04-08 18:02:00,
2013-04-08 10:07:00,3.8,0.3,29.98,NE,38,1.0,5.0,85,0.00,,---,0.00,VWS V14.01,2013-04-08 18:07:00,
2013-04-08 10:12:00,3.8,0.3,29.98,NE,49,2.0,5.0,85,0.00,,---,0.00,VWS V14.01,2013-04-08 18:12:00,
2013-04-08 10:17:00,3.9,0.4,29.97,NNE,30,2.0,5.0,85,0.00,,---,0.00,VWS V14.01,2013-04-08 18:17:00,
2013-04-08 10:22:00,4.0,0.5,29.97,North,5,0.0,5.0,85,0.00,,---,0.00,VWS V14.01,2013-04-08 18:22:00,
2013-04-08 10:27:00,4.1,0.6,29.97,NNE,17,0.0,5.0,85,0.00,,---,0.00,VWS V14.01,2013-04-08 18:27:00,
2013-04-08 10:30:00,4.1,0.6,29.97,North,355,1.0,5.0,85,0.00,,---,0.00,VWS V14.01,2013-04-08 18:30:00,
2013-04-08 10:32:00,4.1,0.6,29.97,North,360,0.0,1.0,85,0.00,,---,0.00,VWS V14.01,2013-04-08 18:32:00,
2013-04-08 10:37:00,4.2,0.7,29.97,North,355,1.0,3.0,85,0.00,,---,0.00,VWS V14.01,2013-04-08 18:37:00,
2013-04-08 10:42:00,4.2,0.7,29.96,NNE,12,1.0,3.0,85,0.00,,---,0.00,VWS V14.01,2013-04-08 18:42:00,
2013-04-08 10:47:00,4.3,0.8,29.96,NNE,19,0.0,3.0,85,0.00,,---,0.00,VWS V14.01,2013-04-08 18:47:00,
2013-04-08 10:52:00,4.4,0.9,29.96,North,355,0.0,3.0,85,0.00,,---,0.00,VWS V14.01,2013-04-08 18:52:00,
2013-04-08 10:57:00,4.4,0.9,29.96,North,5,0.0,3.0,85,0.00,,---,0.00,VWS V14.01,2013-04-08 18:57:00,
2013-04-08 11:00:00,4.3,0.8,29.96,North,5,1.0,3.0,85,0.00,,---,0.00,VWS V14.01,2013-04-08 19:00:00,
2013-04-08 11:02:00,4.3,0.8,29.96,North,360,0.0,1.0,85,0.00,,---,0.00,VWS V14.01,2013-04-08 19:02:00,
2013-04-08 11:07:00,4.1,0.6,29.96,North,355,1.0,2.0,85,0.00,,---,0.00,VWS V14.01,2013-04-08 19:07:00,
2013-04-08 11:12:00,4.0,0.5,29.95,North,355,1.0,2.0,85,0.00,,---,0.00,VWS V14.01,2013-04-08 19:12:00,
2013-04-08 11:17:00,4.1,0.9,29.95,North,5,0.0,3.0,86,0.00,,---,0.00,VWS V14.01,2013-04-08 19:17:00,
2013-04-08 11:22:00,4.3,1.0,29.95,NW,325,2.0,4.0,86,0.00,,---,0.00,VWS V14.01,2013-04-08 19:22:00,
2013-04-08 11:27:00,4.2,0.7,29.95,NNW,348,0.0,5.0,85,0.00,,---,0.00,VWS V14.01,2013-04-08 19:27:00,
2013-04-08 11:30:00,4.1,0.6,29.95,NW,323,1.0,5.0,85,0.00,,---,0.00,VWS V14.01,2013-04-08 19:30:00,
2013-04-08 11:32:00,4.1,0.6,29.94,NNW,332,1.0,2.0,85,0.00,,---,0.00,VWS V14.01,2013-04-08 19:32:00,
2013-04-08 11:37:00,4.3,1.0,29.94,NW,319,1.0,4.0,86,0.00,,---,0.00,VWS V14.01,2013-04-08 19:37:00,
2013-04-08 11:42:00,4.1,0.6,29.94,NNW,346,1.0,6.0,85,0.00,,---,0.00,VWS V14.01,2013-04-08 19:42:00,
2013-04-08 11:47:00,4.1,0.6,29.93,NW,319,1.0,6.0,85,0.00,,---,0.00,VWS V14.01,2013-04-08 19:47:00,
2013-04-08 11:52:00,4.0,0.5,29.94,WNW,290,1.0,6.0,85,0.00,,---,0.00,VWS V14.01,2013-04-08 19:52:00,
2013-04-08 11:57:00,4.0,0.5,29.94,NW,323,1.0,6.0,85,0.00,,---,0.00,VWS V14.01,2013-04-08 19:57:00,
2013-04-08 12:00:00,3.8,0.1,29.94,NW,321,2.0,6.0,84,0.00,,---,0.00,VWS V14.01,2013-04-08 20:00:00,
2013-04-08 12:02:00,3.8,0.1,29.93,NW,321,1.0,2.0,84,0.00,,---,0.00,VWS V14.01,2013-04-08 20:02:00,
2013-04-08 12:07:00,3.9,0.4,29.93,NNW,327,1.0,3.0,85,0.00,,---,0.00,VWS V14.01,2013-04-08 20:07:00,
2013-04-08 12:12:00,4.0,0.5,29.93,NW,319,2.0,3.0,85,0.00,,---,0.00,VWS V14.01,2013-04-08 20:12:00,
2013-04-08 12:17:00,4.1,0.6,29.93,NW,322,4.0,4.0,85,0.00,,---,0.00,VWS V14.01,2013-04-08 20:17:00,
2013-04-08 12:22:00,4.2,0.7,29.93,NNW,327,0.0,4.0,85,0.00,,---,0.00,VWS V14.01,2013-04-08 20:22:00,
2013-04-08 12:27:00,4.6,1.1,29.92,NW,316,0.0,4.0,85,0.00,,---,0.00,VWS V14.01,2013-04-08 20:27:00,
2013-04-08 12:30:00,4.7,1.2,29.92,NNW,337,1.0,4.0,85,0.00,,---,0.00,VWS V14.01,2013-04-08 20:30:00,
2013-04-08 12:32:00,4.7,1.2,29.92,NW,323,3.0,3.0,85,0.00,,---,0.00,VWS V14.01,2013-04-08 20:32:00,
2013-04-08 12:37:00,4.9,1.4,29.92,NNW,339,2.0,5.0,85,0.00,,---,0.00,VWS V14.01,2013-04-08 20:37:00,
2013-04-08 12:42:00,5.1,1.6,29.92,North,350,1.0,5.0,85,0.00,,---,0.00,VWS V14.01,2013-04-08 20:42:00,
2013-04-08 12:47:00,5.3,1.8,29.92,NW,326,2.0,5.0,85,0.00,,---,0.00,VWS V14.01,2013-04-08 20:47:00,
2013-04-08 12:52:00,5.5,2.0,29.92,North,355,0.0,5.0,85,0.00,,---,0.00,VWS V14.01,2013-04-08 20:52:00,
2013-04-08 12:57:00,5.8,2.0,29.92,NNW,330,1.0,5.0,84,0.00,,---,0.00,VWS V14.01,2013-04-08 20:57:00,
2013-04-08 13:00:00,5.9,2.1,29.92,NW,304,3.0,5.0,84,0.00,,---,0.00,VWS V14.01,2013-04-08 21:00:00,
2013-04-08 13:02:00,5.9,2.1,29.92,NNW,336,2.0,4.0,84,0.00,,---,0.00,VWS V14.01,2013-04-08 21:02:00,
2013-04-08 13:07:00,6.0,2.5,29.92,NNW,337,1.0,4.0,85,0.00,,---,0.00,VWS V14.01,2013-04-08 21:07:00,
2013-04-08 13:12:00,6.5,3.0,29.91,NW,317,2.0,4.0,85,0.00,,---,0.00,VWS V14.01,2013-04-08 21:12:00,
2013-04-08 13:17:00,6.7,2.6,29.91,North,5,1.0,5.0,83,0.00,,---,0.00,VWS V14.01,2013-04-08 21:17:00,
2013-04-08 13:22:00,6.9,3.1,29.91,NW,319,1.0,5.0,84,0.00,,---,0.00,VWS V14.01,2013-04-08 21:22:00,
2013-04-08 13:27:00,7.2,3.1,29.91,North,5,1.0,5.0,83,0.00,,---,0.00,VWS V14.01,2013-04-08 21:27:00,
2013-04-08 13:30:00,7.2,3.1,29.91,NNW,348,3.0,5.0,83,0.00,,---,0.00,VWS V14.01,2013-04-08 21:30:00,
2013-04-08 13:32:00,7.2,3.1,29.91,NNW,344,0.0,3.0,83,0.00,,---,0.00,VWS V14.01,2013-04-08 21:32:00,
2013-04-08 13:37:00,7.8,4.0,29.91,NW,324,0.0,3.0,84,0.00,,---,0.00,VWS V14.01,2013-04-08 21:37:00,
2013-04-08 13:42:00,8.3,4.5,29.90,NW,326,1.0,4.0,84,0.00,,---,0.00,VWS V14.01,2013-04-08 21:42:00,
2013-04-08 13:47:00,8.5,4.4,29.90,NW,317,1.0,4.0,83,0.00,,---,0.00,VWS V14.01,2013-04-08 21:47:00,
2013-04-08 13:52:00,8.4,4.3,29.90,North,5,1.0,4.0,83,0.00,,---,0.00,VWS V14.01,2013-04-08 21:52:00,
2013-04-08 13:57:00,8.6,4.5,29.90,North,355,2.0,4.0,83,0.00,,---,0.00,VWS V14.01,2013-04-08 21:57:00,
2013-04-08 14:00:00,8.6,4.2,29.90,NNW,327,2.0,4.0,82,0.00,,---,0.00,VWS V14.01,2013-04-08 22:00:00,
2013-04-08 14:02:00,8.6,4.2,29.90,NNE,28,1.0,4.0,82,0.00,,---,0.00,VWS V14.01,2013-04-08 22:02:00,
2013-04-08 14:07:00,8.5,4.2,29.89,WNW,295,0.0,4.0,82,0.00,,---,0.00,VWS V14.01,2013-04-08 22:07:00,
2013-04-08 14:12:00,8.6,4.2,29.89,NW,309,0.0,4.0,82,0.00,,---,0.00,VWS V14.01,2013-04-08 22:12:00,
2013-04-08 14:17:00,8.8,4.7,29.89,NW,311,0.0,4.0,83,0.00,,---,0.00,VWS V14.01,2013-04-08 22:17:00,
2013-04-08 14:22:00,8.9,4.5,29.89,WNW,298,0.0,4.0,82,0.00,,---,0.00,VWS V14.01,2013-04-08 22:22:00,
2013-04-08 14:27:00,9.0,4.9,29.89,West,275,0.0,4.0,83,0.00,,---,0.00,VWS V14.01,2013-04-08 22:27:00,
2013-04-08 14:30:00,9.2,4.8,29.88,WNW,292,1.0,4.0,82,0.00,,---,0.00,VWS V14.01,2013-04-08 22:30:00,
2013-04-08 14:32:00,9.2,5.1,29.88,NW,309,3.0,3.0,83,0.00,,---,0.00,VWS V14.01,2013-04-08 22:32:00,
2013-04-08 14:37:00,9.4,5.0,29.88,NW,311,2.0,3.0,82,0.00,,---,0.00,VWS V14.01,2013-04-08 22:37:00,
2013-04-08 14:42:00,9.6,5.2,29.88,West,271,2.0,4.0,82,0.00,,---,0.00,VWS V14.01,2013-04-08 22:42:00,
2013-04-08 14:47:00,9.9,5.5,29.88,WNW,288,1.0,4.0,82,0.00,,---,0.00,VWS V14.01,2013-04-08 22:47:00,
2013-04-08 14:52:00,9.8,5.4,29.87,WNW,282,3.0,4.0,82,0.00,,---,0.00,VWS V14.01,2013-04-08 22:52:00,
2013-04-08 14:57:00,9.8,5.4,29.87,West,276,1.0,4.0,82,0.00,,---,0.00,VWS V14.01,2013-04-08 22:57:00,
2013-04-08 15:00:00,9.9,5.5,29.87,NW,309,0.0,4.0,82,0.00,,---,0.00,VWS V14.01,2013-04-08 23:00:00,
2013-04-08 15:02:00,10.0,5.6,29.87,NW,309,2.0,2.0,82,0.00,,---,0.00,VWS V14.01,2013-04-08 23:02:00,
2013-04-08 15:07:00,10.1,5.7,29.87,WNW,303,2.0,3.0,82,0.00,,---,0.00,VWS V14.01,2013-04-08 23:07:00,
2013-04-08 15:13:00,10.1,5.7,29.87,NW,304,0.0,4.0,82,0.00,,---,0.00,VWS V14.01,2013-04-08 23:13:00,
2013-04-08 15:18:00,10.2,5.8,29.87,West,261,1.0,4.0,82,0.00,,---,0.00,VWS V14.01,2013-04-08 23:18:00,
2013-04-08 15:23:00,10.5,6.4,29.87,WNW,286,2.0,4.0,83,0.00,,---,0.00,VWS V14.01,2013-04-08 23:23:00,
2013-04-08 15:28:00,10.7,6.3,29.86,West,267,1.0,4.0,82,0.00,,---,0.00,VWS V14.01,2013-04-08 23:28:00,
2013-04-08 15:30:00,10.8,6.4,29.86,WNW,283,0.0,4.0,82,0.00,,---,0.00,VWS V14.01,2013-04-08 23:30:00,
2013-04-08 15:33:00,10.7,6.3,29.86,WNW,283,2.0,2.0,82,0.00,,---,0.00,VWS V14.01,2013-04-08 23:33:00,
2013-04-08 15:38:00,10.7,6.3,29.85,WNW,283,1.0,3.0,82,0.00,,---,0.00,VWS V14.01,2013-04-08 23:38:00,
2013-04-08 15:42:00,11.1,6.7,29.86,WNW,284,2.0,3.0,82,0.00,,---,0.00,VWS V14.01,2013-04-08 23:42:00,
2013-04-08 15:47:00,11.3,6.9,29.85,WNW,284,0.0,3.0,82,0.00,,---,0.00,VWS V14.01,2013-04-08 23:47:00,
2013-04-08 15:52:00,11.4,6.7,29.85,WNW,297,1.0,4.0,81,0.00,,---,0.00,VWS V14.01,2013-04-08 23:52:00,
2013-04-08 15:57:00,11.1,6.2,29.85,WSW,253,1.0,4.0,80,0.00,,---,0.00,VWS V14.01,2013-04-08 23:57:00,
2013-04-08 16:00:00,11.0,6.3,29.85,WSW,253,0.0,4.0,81,0.00,,---,0.00,VWS V14.01,2013-04-09 00:00:00,
2013-04-08 16:02:00,11.0,6.3,29.85,WSW,253,0.0,1.0,81,0.00,,---,0.00,VWS V14.01,2013-04-09 00:02:00,
2013-04-08 16:07:00,11.1,6.7,29.85,WSW,241,0.0,3.0,82,0.00,,---,0.00,VWS V14.01,2013-04-09 00:07:00,
2013-04-08 16:12:00,10.6,6.5,29.84,WSW,239,0.0,5.0,83,0.00,,---,0.00,VWS V14.01,2013-04-09 00:12:00,
2013-04-08 16:17:00,10.4,6.5,29.84,SSW,210,1.0,5.0,84,0.00,,---,0.00,VWS V14.01,2013-04-09 00:17:00,
2013-04-08 16:22:00,10.1,6.2,29.84,SW,223,1.0,5.0,84,0.00,,---,0.00,VWS V14.01,2013-04-09 00:22:00,
2013-04-08 16:27:00,10.0,6.4,29.84,WSW,242,0.0,5.0,85,0.00,,---,0.00,VWS V14.01,2013-04-09 00:27:00,
2013-04-08 16:30:00,10.0,6.4,29.84,WSW,243,2.0,5.0,85,0.00,,---,0.00,VWS V14.01,2013-04-09 00:30:00,
2013-04-08 16:32:00,9.9,6.3,29.84,WSW,243,1.0,2.0,85,0.00,,---,0.00,VWS V14.01,2013-04-09 00:32:00,
2013-04-08 16:37:00,9.8,6.5,29.83,SW,222,1.0,4.0,86,0.00,,---,0.00,VWS V14.01,2013-04-09 00:37:00,
2013-04-08 16:42:00,10.0,6.7,29.83,SW,222,0.0,4.0,86,0.00,,---,0.00,VWS V14.01,2013-04-09 00:42:00,
2013-04-08 16:47:00,9.9,6.3,29.83,SW,222,0.0,4.0,85,0.00,,---,0.00,VWS V14.01,2013-04-09 00:47:00,
2013-04-08 16:52:00,9.9,6.6,29.83,SW,221,1.0,4.0,86,0.00,,---,0.00,VWS V14.01,2013-04-09 00:52:00,
2013-04-08 16:57:00,10.1,6.8,29.82,SW,225,1.0,4.0,86,0.00,,---,0.00,VWS V14.01,2013-04-09 00:57:00,
2013-04-08 17:00:00,10.0,6.7,29.82,SW,226,1.0,4.0,86,0.00,,---,0.00,VWS V14.01,2013-04-09 01:00:00,
2013-04-08 17:02:00,9.9,6.6,29.82,SW,226,0.0,1.0,86,0.00,,---,0.00,VWS V14.01,2013-04-09 01:02:00,
2013-04-08 17:07:00,10.0,6.7,29.82,SW,225,0.0,4.0,86,0.00,,---,0.00,VWS V14.01,2013-04-09 01:07:00,
2013-04-08 17:12:00,9.9,6.6,29.82,SW,229,2.0,4.0,86,0.00,,---,0.00,VWS V14.01,2013-04-09 01:12:00,
2013-04-08 17:17:00,9.8,6.5,29.81,SW,229,1.0,4.0,86,0.00,,---,0.00,VWS V14.01,2013-04-09 01:17:00,
2013-04-08 17:22:00,9.8,6.5,29.81,West,259,0.0,4.0,86,0.00,,---,0.00,VWS V14.01,2013-04-09 01:22:00,
2013-04-08 17:27:00,9.9,6.8,29.80,West,259,0.0,4.0,87,0.00,,---,0.00,VWS V14.01,2013-04-09 01:27:00,
2013-04-08 17:30:00,10.0,6.7,29.80,West,259,0.0,4.0,86,0.00,,---,0.00,VWS V14.01,2013-04-09 01:30:00,
2013-04-08 17:32:00,10.0,6.7,29.80,SW,233,3.0,3.0,86,0.00,,---,0.00,VWS V14.01,2013-04-09 01:32:00,
2013-04-08 17:37:00,10.0,6.7,29.80,SSW,201,0.0,3.0,86,0.00,,---,0.00,VWS V14.01,2013-04-09 01:37:00,
2013-04-08 17:42:00,9.9,6.6,29.80,WSW,244,2.0,4.0,86,0.00,,---,0.00,VWS V14.01,2013-04-09 01:42:00,
2013-04-08 17:47:00,9.8,6.5,29.80,SW,227,1.0,4.0,86,0.00,,---,0.00,VWS V14.01,2013-04-09 01:47:00,
2013-04-08 17:52:00,9.8,6.5,29.80,SSW,197,1.0,5.0,86,0.00,,---,0.00,VWS V14.01,2013-04-09 01:52:00,
2013-04-08 17:57:00,9.9,6.6,29.79,WSW,243,1.0,5.0,86,0.00,,---,0.00,VWS V14.01,2013-04-09 01:57:00,
2013-04-08 18:00:00,9.9,6.6,29.79,WSW,243,1.0,5.0,86,0.00,,---,0.00,VWS V14.01,2013-04-09 02:00:00,
2013-04-08 18:02:00,9.9,6.6,29.79,WSW,244,1.0,1.0,86,0.00,,---,0.00,VWS V14.01,2013-04-09 02:02:00,
2013-04-08 18:07:00,9.8,6.5,29.79,WSW,245,1.0,4.0,86,0.00,,---,0.00,VWS V14.01,2013-04-09 02:07:00,
2013-04-08 18:12:00,9.7,6.4,29.79,SW,223,2.0,5.0,86,0.00,,---,0.00,VWS V14.01,2013-04-09 02:12:00,
2013-04-08 18:17:00,9.7,6.4,29.78,SW,223,0.0,5.0,86,0.00,,---,0.00,VWS V14.01,2013-04-09 02:17:00,
2013-04-08 18:22:00,9.5,6.2,29.78,SW,224,3.0,5.0,86,0.00,,---,0.00,VWS V14.01,2013-04-09 02:22:00,
2013-04-08 18:27:00,9.4,6.1,29.77,SSW,211,2.0,5.0,86,0.00,,---,0.00,VWS V14.01,2013-04-09 02:27:00,
2013-04-08 18:30:00,9.3,6.0,29.77,SSW,211,1.0,5.0,86,0.00,,---,0.00,VWS V14.01,2013-04-09 02:30:00,
2013-04-08 18:32:00,9.3,6.2,29.77,SSW,208,0.0,4.0,87,0.00,,---,0.00,VWS V14.01,2013-04-09 02:32:00,
2013-04-08 18:37:00,9.2,6.1,29.77,SSW,208,2.0,4.0,87,0.00,,---,0.00,VWS V14.01,2013-04-09 02:37:00,
2013-04-08 18:42:00,9.1,6.0,29.77,SW,215,1.0,4.0,87,0.00,,---,0.00,VWS V14.01,2013-04-09 02:42:00,
2013-04-08 18:48:00,9.1,6.3,29.77,SW,221,3.0,4.0,88,0.00,,---,0.00,VWS V14.01,2013-04-09 02:48:00,
2013-04-08 18:52:00,9.0,5.9,29.76,WSW,237,0.0,4.0,87,0.00,,---,0.00,VWS V14.01,2013-04-09 02:52:00,
2013-04-08 18:57:00,8.9,5.8,29.76,SW,229,1.0,4.0,87,0.00,,---,0.00,VWS V14.01,2013-04-09 02:57:00,
2013-04-08 19:00:00,8.8,5.7,29.76,SW,229,0.0,4.0,87,0.00,,---,0.00,VWS V14.01,2013-04-09 03:00:00,
2013-04-08 19:02:00,8.9,6.1,29.76,SW,229,0.0,1.0,88,0.00,,---,0.00,VWS V14.01,2013-04-09 03:02:00,
2013-04-08 19:07:00,9.0,6.2,29.75,SW,229,0.0,2.0,88,0.00,,---,0.00,VWS V14.01,2013-04-09 03:07:00,
2013-04-08 19:12:00,8.9,5.8,29.76,SW,230,1.0,3.0,87,0.00,,---,0.00,VWS V14.01,2013-04-09 03:12:00,
2013-04-08 19:17:00,8.9,6.1,29.75,SW,230,2.0,3.0,88,0.00,,---,0.00,VWS V14.01,2013-04-09 03:17:00,
2013-04-08 19:23:00,9.0,6.2,29.75,SW,230,0.0,3.0,88,0.00,,---,0.00,VWS V14.01,2013-04-09 03:23:00,
2013-04-08 19:27:00,9.0,5.9,29.75,SW,230,0.0,3.0,87,0.00,,---,0.00,VWS V14.01,2013-04-09 03:27:00,
2013-04-08 19:30:00,8.9,5.8,29.74,SW,230,0.0,3.0,87,0.00,,---,0.00,VWS V14.01,2013-04-09 03:30:00,
2013-04-08 19:32:00,8.9,5.8,29.74,SW,230,1.0,1.0,87,0.00,,---,0.00,VWS V14.01,2013-04-09 03:32:00,
2013-04-08 19:37:00,8.7,5.6,29.74,SW,230,0.0,3.0,87,0.00,,---,0.00,VWS V14.01,2013-04-09 03:37:00,
2013-04-08 19:42:00,8.5,5.4,29.74,SW,230,0.0,3.0,87,0.00,,---,0.00,VWS V14.01,2013-04-09 03:42:00,
2013-04-08 19:47:00,8.3,5.2,29.74,SW,230,1.0,3.0,87,0.00,,---,0.00,VWS V14.01,2013-04-09 03:47:00,
2013-04-08 19:52:00,8.2,5.1,29.74,SW,230,1.0,3.0,87,0.00,,---,0.00,VWS V14.01,2013-04-09 03:52:00,
2013-04-08 19:57:00,8.1,5.0,29.74,SW,230,1.0,3.0,87,0.00,,---,0.00,VWS V14.01,2013-04-09 03:57:00,
2013-04-08 20:00:00,8.0,4.9,29.73,SW,230,2.0,3.0,87,0.00,,---,0.00,VWS V14.01,2013-04-09 04:00:00,
2013-04-08 20:05:00,7.9,4.8,29.73,SW,230,1.0,1.0,87,0.00,,---,0.00,VWS V14.01,2013-04-09 04:05:00,
2013-04-08 20:10:00,7.9,5.1,29.73,SW,230,0.0,4.0,88,0.00,,---,0.00,VWS V14.01,2013-04-09 04:10:00,
2013-04-08 20:15:00,7.9,5.1,29.73,SW,230,0.0,4.0,88,0.00,,---,0.00,VWS V14.01,2013-04-09 04:15:00,
2013-04-08 20:20:00,7.8,5.0,29.72,SW,230,0.0,4.0,88,0.00,,---,0.00,VWS V14.01,2013-04-09 04:20:00,
2013-04-08 20:25:00,7.8,5.0,29.72,SW,230,1.0,4.0,88,0.00,,---,0.00,VWS V14.01,2013-04-09 04:25:00,
2013-04-08 20:30:00,7.7,4.7,29.72,SW,230,1.0,4.0,87,0.00,,---,0.00,VWS V14.01,2013-04-09 04:30:00,
2013-04-08 20:35:00,7.6,4.8,29.72,SW,230,0.0,1.0,88,0.00,,---,0.00,VWS V14.01,2013-04-09 04:35:00,
2013-04-08 20:40:00,7.5,4.4,29.72,SW,230,2.0,2.0,87,0.00,,---,0.00,VWS V14.01,2013-04-09 04:40:00,
2013-04-08 20:45:00,7.4,4.3,29.71,SW,230,0.0,2.0,87,0.00,,---,0.00,VWS V14.01,2013-04-09 04:45:00,
2013-04-08 20:50:00,7.3,4.2,29.71,SW,230,0.0,2.0,87,0.00,,---,0.00,VWS V14.01,2013-04-09 04:50:00,
2013-04-08 20:55:00,7.2,4.4,29.71,SW,230,0.0,2.0,88,0.00,,---,0.00,VWS V14.01,2013-04-09 04:55:00,
2013-04-08 21:00:00,7.2,4.4,29.71,SW,230,2.0,2.0,88,0.00,,---,0.00,VWS V14.01,2013-04-09 05:00:00,
2013-04-08 21:05:00,7.1,4.3,29.71,SW,230,0.0,1.0,88,0.00,,---,0.00,VWS V14.01,2013-04-09 05:05:00,
2013-04-08 21:10:00,6.9,3.9,29.71,SW,230,1.0,2.0,87,0.00,,---,0.00,VWS V14.01,2013-04-09 05:10:00,
2013-04-08 21:15:00,6.9,3.9,29.70,SW,230,0.0,2.0,87,0.00,,---,0.00,VWS V14.01,2013-04-09 05:15:00,
2013-04-08 21:20:00,6.8,4.0,29.70,SW,230,0.0,2.0,88,0.00,,---,0.00,VWS V14.01,2013-04-09 05:20:00,
2013-04-08 21:25:00,6.8,4.0,29.70,SW,230,0.0,2.0,88,0.00,,---,0.00,VWS V14.01,2013-04-09 05:25:00,
2013-04-08 21:30:00,6.7,3.9,29.69,SW,230,0.0,2.0,88,0.00,,---,0.00,VWS V14.01,2013-04-09 05:30:00,
2013-04-08 21:35:00,6.7,3.9,29.69,SW,230,1.0,2.0,88,0.00,,---,0.00,VWS V14.01,2013-04-09 05:35:00,
2013-04-08 21:40:00,6.7,3.9,29.69,SW,230,0.0,2.0,88,0.00,,---,0.00,VWS V14.01,2013-04-09 05:40:00,
2013-04-08 21:45:00,6.6,3.8,29.69,SW,230,0.0,2.0,88,0.00,,---,0.00,VWS V14.01,2013-04-09 05:45:00,
2013-04-08 21:50:00,6.6,3.8,29.69,SW,230,0.0,2.0,88,0.00,,---,0.00,VWS V14.01,2013-04-09 05:50:00,
2013-04-08 21:55:00,6.6,3.8,29.68,SW,230,0.0,2.0,88,0.00,,---,0.00,VWS V14.01,2013-04-09 05:55:00,
2013-04-08 22:00:00,6.5,3.7,29.68,SW,230,0.0,2.0,88,0.00,,---,0.00,VWS V14.01,2013-04-09 06:00:00,
2013-04-08 22:05:00,6.6,3.8,29.68,SW,230,0.0,0.0,88,0.00,,---,0.00,VWS V14.01,2013-04-09 06:05:00,
2013-04-08 22:10:00,6.5,3.7,29.67,SW,230,0.0,0.0,88,0.00,,---,0.00,VWS V14.01,2013-04-09 06:10:00,
2013-04-08 22:15:00,6.6,3.8,29.67,SW,230,0.0,0.0,88,0.00,,---,0.00,VWS V14.01,2013-04-09 06:15:00,
2013-04-08 22:20:00,6.5,3.7,29.67,SW,230,0.0,0.0,88,0.00,,---,0.00,VWS V14.01,2013-04-09 06:20:00,
2013-04-08 22:25:00,6.5,3.7,29.67,SW,230,0.0,0.0,88,0.00,,---,0.00,VWS V14.01,2013-04-09 06:25:00,
2013-04-08 22:30:00,6.5,4.0,29.66,SW,230,0.0,0.0,89,0.00,,---,0.00,VWS V14.01,2013-04-09 06:30:00,
2013-04-08 22:35:00,6.4,3.9,29.66,SW,230,0.0,0.0,89,0.00,,---,0.00,VWS V14.01,2013-04-09 06:35:00,
2013-04-08 22:40:00,6.4,3.9,29.66,SW,230,0.0,0.0,89,0.00,,---,0.00,VWS V14.01,2013-04-09 06:40:00,
2013-04-08 22:45:00,6.3,3.8,29.66,SW,230,0.0,0.0,89,0.00,,---,0.00,VWS V14.01,2013-04-09 06:45:00,
2013-04-08 22:50:00,6.3,3.8,29.66,SW,230,0.0,0.0,89,0.00,,---,0.00,VWS V14.01,2013-04-09 06:50:00,
2013-04-08 22:55:00,6.3,3.8,29.65,SW,230,0.0,0.0,89,0.00,,---,0.00,VWS V14.01,2013-04-09 06:55:00,
2013-04-08 23:00:00,6.3,3.8,29.65,SW,230,0.0,0.0,89,0.00,,---,0.00,VWS V14.01,2013-04-09 07:00:00,
2013-04-08 23:05:00,6.2,3.7,29.65,SW,230,0.0,0.0,89,0.00,,---,0.00,VWS V14.01,2013-04-09 07:05:00,
2013-04-08 23:10:00,6.2,3.7,29.65,SW,230,0.0,0.0,89,0.00,,---,0.00,VWS V14.01,2013-04-09 07:10:00,
2013-04-08 23:15:00,6.1,3.6,29.64,SW,230,0.0,0.0,89,0.00,,---,0.00,VWS V14.01,2013-04-09 07:15:00,
2013-04-08 23:20:00,6.1,3.6,29.64,SW,230,0.0,0.0,89,0.00,,---,0.00,VWS V14.01,2013-04-09 07:20:00,
2013-04-08 23:25:00,6.1,3.6,29.63,SW,230,0.0,0.0,89,0.00,,---,0.00,VWS V14.01,2013-04-09 07:25:00,
2013-04-08 23:30:00,6.0,3.5,29.63,SW,230,0.0,0.0,89,0.00,,---,0.00,VWS V14.01,2013-04-09 07:30:00,
2013-04-08 23:35:00,6.0,3.5,29.63,SW,230,0.0,0.0,89,0.00,,---,0.00,VWS V14.01,2013-04-09 07:35:00,
2013-04-08 23:40:00,6.0,3.5,29.63,SW,230,0.0,0.0,89,0.00,,---,0.00,VWS V14.01,2013-04-09 07:40:00,
2013-04-08 23:45:00,6.0,3.5,29.63,SW,230,0.0,0.0,89,0.00,,---,0.00,VWS V14.01,2013-04-09 07:45:00,
2013-04-08 23:50:00,6.0,3.5,29.63,SW,230,0.0,1.0,89,0.00,,---,0.00,VWS V14.01,2013-04-09 07:50:00,
2013-04-08 23:55:00,5.9,3.4,29.62,SW,230,0.0,1.0,89,0.00,,---,0.00,VWS V14.01,2013-04-09 07:55:00,